YAMAL 402

Last updated on Tue Dec 16 2025 00:02:49 GMT+0000 (Coordinated Universal Time)

1 39022U 12070A 25349.21201860 .00000106 00000+0 00000+0 0 9994 2 39022 0.7938 86.7017 0004158 179.6669 308.9804 1.00272274 47554
UTC large
Height (km)
Speed (km/s)
/
Latitude / Longitude
Inclination (degrees)
Orbital Period (minutes)
Azimuth
Elevation
Range (km)
Doppler Factor

Next 0 passes for location: London (51.5072 / 0.1276)

Sorry there are no passes over London.